Location: El Corozo
(10.5833°N, 66.9667°W)
Time: 12:20:55
(UTC+00:00)

Lacrosse 5 rocket - Pass Details

Date: 23 May 2024
Orbit: 445 x 572 km, 57.0° (Epoch: 20 June)

Event Time Altitude Azimuth Distance (km) Brightness Sun altitude
Rises 07:51:54 0° 349° (N) 2,594 5.0 -30.2°
Reaches altitude 10° 07:54:30 10° 6° (N) 1,683 4.2 -29.7°
Maximum altitude 07:57:24 21° 56° (NE) 1,137 3.6 -29.1°
Drops below altitude 10° 08:00:12 10° 106° (ESE) 1,629 4.2 -28.5°
Sets 08:02:41 0° 123° (ESE) 2,483 5.0 -28.0°
